Regional Weather Roundup
Issued by NWS

Home | Current Version | Previous Version | Text Only | Print | Product List | Glossary On
Versions: 1 2 3 4 5 6 7 8 9 10 11 12 13 14 15 16 17 18 19 20 21 22 23 24 25 26 27 28 29 30 31 32 33 34 35 36 37 38 39 40 41 42 43 44 45 46 47 48 49 50
000
ASUS43 KTOP 090808
RWRKS

WEATHER ROUNDUP FOR KANSAS
NATIONAL WEATHER SERVICE GOODLAND KS
200 AM CST FRI DEC 09 2016

NOTE:  "FAIR" INDICATES FEW OR NO CLOUDS BELOW 12,000 FEET WITH NO
SIGNIFICANT WEATHER AND/OR OBSTRUCTIONS TO VISIBILITY.

KSZ001>006-013>018-027>032-041>047-090900-
NORTHWEST KANSAS

CITY           SKY/WX    TMP DP  RH WIND       PRES   REMARKS
GOODLAND       CLOUDY     6   1  80 SE10      30.34F WCI  -9
HAYS           CLOUDY     7   3  84 CALM      30.57F
HILL CITY      CLOUDY     6   1  80 CALM      30.53F
RUSSELL        CLOUDY    10   5  80 CALM      30.57F
$$

KSZ061>065-074>080-084>089-090900-
SOUTHWEST KANSAS

CITY           SKY/WX    TMP DP  RH WIND       PRES   REMARKS
DODGE CITY     CLOUDY    18   7  62 SE9       30.51F
ELKHART          N/A     21   1  41 S14         N/A  WCI   8
GARDEN CITY    CLOUDY    20   5  52 S12       30.45F WCI   8
GREAT BEND     CLOUDY     8   4  83 CALM      30.59F
LIBERAL        CLOUDY    25   3  39 SE12      30.45F WCI  14
PRATT          CLOUDY    13   3  64 CALM      30.58F
$$

KSZ066>073-081>083-090>101-090900-
SOUTHEAST KANSAS

CITY           SKY/WX    TMP DP  RH WIND       PRES   REMARKS
CHANUTE        CLEAR     15  10  80 NW5       30.66R
COFFEYVILLE    CLEAR     15  11  83 CALM      30.69R
HUTCHINSON     CLOUDY    10   6  84 CALM      30.62F
MEDICINE LODGE   N/A     11   6  81 CALM      30.61F
NEWTON         CLOUDY    14   8  77 N5        30.63S
PARSONS        CLEAR     12   9  87 CALM      30.67S
WICHITA INTL   CLOUDY    13   9  84 CALM      30.63F
WICHITA JABRA  CLOUDY    16   8  71 N5        30.63F
WICHITA MCCONL CLOUDY    17   8  68 N5        30.63F
WINFIELD       CLOUDY    13   9  84 CALM      30.65F
$$

KSZ007>012-019>026-033>040-048>060-102>105-090900-
NORTHEAST KANSAS

CITY           SKY/WX    TMP DP  RH WIND       PRES   REMARKS
CONCORDIA      CLOUDY    10   5  80 CALM      30.61F
EMPORIA        CLEAR     13   9  84 W3        30.64S
LAWRENCE       CLEAR      8   5  87 NW7       30.67S
MANHATTAN      CLEAR     10   5  80 CALM      30.67R
MARYSVILLE     CLEAR      9   5  85 CALM      30.64F
OLATHE IND     CLEAR     13   9  84 NW5       30.64F
OLATHE EXE     CLEAR     15   8  73 NW5       30.63F
SALINA         CLOUDY    12   6  77 SW3       30.65F
TOPEKA BILLARD CLEAR     14   8  77 W3        30.67S
TOPEKA FORBES  CLEAR     13   7  77 NW6       30.66R
$$



USA.gov is the U.S. government's official web portal to all federal, state and local government web resources and services.